Lid_Strength_Index
4 4 4 4 4 4 4 4 4 4 4 4 4 5 4 4 4 9 11 8 6 3 2 5 6 8 8 10 10 10 15 17 16 16 15 13 12 9 8 12 11 10 9 4 3
4 4 4 4 4 4 4 5 5 5 5 4 4 5 4 4 8 10 6 4 2 1 4 6 7 9 11 11 11 11 15 14 13 13 14 12 11 10 9 10 11 11 7 3 3
5 5 5 4 4 5 5 4 5 5 4 4 4 5 4 5 12 11 4 2 1 1 4 4 5 8 12 11 12 14 13 11 11 11 11 11 11 9 10 11 10 11 5 5 4
5 4 5 5 5 5 5 5 5 4 4 4 4 4 4 7 16 9 -1 -1 1 4 7 5 8 11 12 12 11 14 12 12 11 9 10 10 9 10 10 9 7 9 8 5 5
5 5 5 5 5 4 5 5 5 5 4 4 4 3 6 11 9 4 -0 1 3 4 6 5 9 11 14 13 12 12 12 10 10 11 11 10 10 9 9 7 6 6 7 5 5
5 5 5 5 4 5 5 5 5 4 4 4 3 3 7 11 4 3 3 3 4 5 5 5 6 7 10 12 13 12 11 11 11 11 11 11 11 11 9 7 7 7 8 8 5
5 5 5 5 5 5 4 4 4 4 3 3 2 3 6 8 3 4 4 5 4 3 5 5 5 8 7 9 8 9 12 11 11 11 11 10 12 12 9 8 8 8 8 6 5
5 5 5 5 5 4 4 4 4 3 2 2 1 3 8 3 3 4 4 4 3 3 3 3 5 8 9 8 9 11 14 16 12 10 9 10 14 11 9 9 9 9 8 6 5
5 5 5 5 5 4 4 4 3 2 1 1 4 6 9 2 4 2 3 4 3 3 4 2 6 8 9 12 13 13 16 15 13 9 10 10 13 11 10 10 9 9 9 10 6
5 5 5 5 4 4 4 4 3 2 2 1 2 8 6 6 3 3 3 3 4 5 7 7 9 12 13 14 18 16 14 13 14 10 10 11 12 11 10 10 10 10 10 10 6
5 5 5 5 4 4 6 9 9 9 6 7 7 7 6 4 3 5 4 5 5 8 11 10 12 14 12 12 11 12 13 13 12 10 12 11 12 11 10 10 10 10 12 9 6
5 5 4 4 4 4 8 9 8 8 10 6 5 6 5 5 7 6 4 8 9 12 11 12 13 9 10 11 12 12 14 14 11 9 12 12 12 11 10 10 10 10 12 11 8
5 5 4 4 4 8 9 7 6 6 10 7 6 6 6 6 8 7 5 7 9 11 12 12 11 9 10 11 12 13 14 13 13 10 10 12 13 12 10 10 9 10 10 10 10
5 5 4 4 8 9 9 6 6 5 13 10 8 7 6 6 8 4 4 6 8 11 10 12 9 10 11 11 11 14 11 11 11 13 16 11 18 13 10 11 10 10 11 11 7
5 5 4 5 9 10 8 6 7 6 19 9 8 5 6 9 8 7 3 6 10 10 10 12 11 12 13 12 10 13 11 11 11 12 15 14 16 14 11 12 11 10 10 11 7
5 5 4 7 9 8 6 6 7 14 18 11 8 9 9 8 8 7 7 6 7 10 10 11 7 9 10 9 9 9 11 12 11 14 19 15 15 16 13 12 10 10 11 11 9
5 5 6 7 9 7 7 8 15 18 10 12 11 9 10 11 10 9 10 12 13 16 15 11 11 9 8 12 10 11 14 19 20 21 20 13 15 14 11 10 9 10 11 11 10
6 6 6 6 6 7 9 12 17 12 12 9 9 10 12 10 10 10 12 14 11 11 14 16 17 12 9 12 13 13 13 20 23 22 18 13 18 14 9 9 9 10 10 10 8
7 9 9 8 6 8 10 17 16 12 9 11 11 13 13 11 11 11 12 13 11 10 15 16 16 10 9 9 10 13 15 12 17 16 19 17 13 11 9 11 11 10 10 10 6
11 11 10 8 8 9 13 14 13 8 8 10 15 12 15 13 13 13 13 10 11 9 9 13 17 11 10 9 10 11 10 17 16 23 23 19 16 15 12 13 11 11 10 11 7
12 12 9 8 8 11 16 15 10 7 8 11 13 12 12 13 12 13 13 10 9 10 9 11 14 13 11 13 14 14 15 14 15 17 21 22 18 13 14 11 11 11 10 7 7
13 16 9 9 14 15 15 12 8 8 9 10 9 10 12 12 13 13 14 11 8 10 13 10 13 17 14 10 9 11 13 14 18 19 17 18 18 11 11 10 11 9 8 7 6
15 14 10 10 17 17 13 11 9 10 10 10 10 9 9 12 14 12 11 8 8 10 14 10 14 18 16 13 11 13 12 13 13 14 18 20 18 10 10 10 9 9 8 7 6
14 17 14 14 14 16 15 13 12 8 9 9 10 9 10 12 11 13 12 10 9 10 7 9 13 16 18 15 13 14 13 12 14 17 17 17 16 13 11 11 10 9 8 7 7
14 16 15 17 16 15 15 13 12 12 9 10 10 10 11 14 13 13 12 11 10 9 10 10 15 14 13 13 13 13 13 13 14 14 17 15 15 13 11 10 9 8 8 8 7
14 15 14 15 14 15 14 14 13 11 11 12 11 10 10 13 12 14 13 13 13 11 12 10 15 13 15 12 13 14 12 12 13 12 13 13 14 10 9 8 9 8 8 8 7
12 12 11 14 15 16 15 13 12 11 9 9 10 11 11 11 10 10 10 11 11 12 12 12 13 15 18 13 13 17 14 13 13 12 13 16 13 10 10 10 9 8 8 7 8